Weather History for Keahole Point, HI

Change the Weather History Date:

Wednesday, April 3, 2013

  Actual Average Record
Temperature  
Mean Temperature 74 °F -  
Max Temperature 82 °F 80 °F 89 °F (1986)
Min Temperature 66 °F 69 °F 65 °F (1987)
Cooling Degree Days 9    
Growing Degree Days 24 (Base 50)    
Moisture  
Dew Point 56 °F    
Average Humidity 53    
Maximum Humidity 61    
Minimum Humidity 41    
Precipitation  
Precipitation 0.00 in - - ()
Sea Level Pressure  
Sea Level Pressure 30.02 in    
Wind  
Wind Speed 5 mph (NW)    
Max Wind Speed 10 mph    
Max Gust Speed -    
Visibility 10 miles    
Events      
Averages and records for this station are not official NWS values.
T = Trace of Precipitation, MM = Missing Value Source: NWS Daily Summary

Daily Weather History Graph

Daily Weather History Graph

Search for Another Location

Airport:

Trip Planner

Search our weather history database for the weather conditions in past years. The results will help you decide how hot, cold, wet, or windy it might be!

Date:

Astronomy

Apr. 03, 2013 Rise Set
Actual Time 6:15 AM HST 6:39 PM HST
Civil Twilight 5:53 AM HST 7:01 PM HST
Nautical Twilight 5:27 AM HST 7:27 PM HST
Astronomical Twilight 5:01 AM HST 7:53 PM HST
Moon 1:16 AM HST (4/3) 12:50 PM HST (4/3)
Length of Visible Light 13h 07m
Length of Day
12h 23m
Last Quarter, 42% of the Moon is Illuminated
Apr 3
Last Quarter
Apr 9
New
Apr 18
First Quarter
Apr 25
Full
May 2
Last Quarter

Hourly Weather History & Observations

Time (HST) Temp. Heat Index Dew Point Humidity Pressure Visibility Wind Dir Wind Speed Gust Speed Precip Events Conditions
12:53 AM 70.0 °F - 54.0 °F 57% 30.03 in 10.0 mi ENE 4.6 mph - N/A   Clear
1:53 AM 68.0 °F - 54.0 °F 61% 30.01 in 10.0 mi Calm Calm - N/A   Clear
2:53 AM 69.1 °F - 55.0 °F 61% 30.00 in 10.0 mi ESE 4.6 mph - N/A   Partly Cloudy
3:53 AM 68.0 °F - 54.0 °F 61% 29.99 in 10.0 mi East 5.8 mph - N/A   Clear
4:53 AM 68.0 °F - 54.0 °F 61% 30.00 in 10.0 mi East 3.5 mph - N/A   Clear
5:53 AM 68.0 °F - 54.0 °F 61% 30.00 in 10.0 mi East 5.8 mph - N/A   Clear
6:53 AM 66.9 °F - 53.1 °F 61% 30.01 in 10.0 mi East 3.5 mph - N/A   Clear
7:53 AM 73.9 °F - 55.0 °F 52% 30.04 in 10.0 mi Calm Calm - N/A   Clear
8:53 AM 75.0 °F - 57.0 °F 53% 30.05 in 10.0 mi WNW 5.8 mph - N/A   Clear
9:53 AM 77.0 °F - 59.0 °F 54% 30.05 in 10.0 mi West 5.8 mph - N/A   Clear
10:53 AM 78.1 °F - 59.0 °F 52% 30.04 in 10.0 mi WSW 10.4 mph - N/A   Clear
11:53 AM 80.1 °F 80.4 °F 57.0 °F 45% 30.04 in 10.0 mi West 10.4 mph - N/A   Clear
12:53 PM 80.1 °F 80.6 °F 57.9 °F 47% 30.02 in 10.0 mi WSW 10.4 mph - N/A   Clear
1:53 PM 82.0 °F 82.0 °F 57.9 °F 44% 30.01 in 10.0 mi WNW 6.9 mph - N/A   Clear
2:53 PM 82.0 °F 81.6 °F 55.9 °F 41% 29.98 in 10.0 mi WNW 10.4 mph - N/A   Scattered Clouds
3:53 PM 79.0 °F - 57.9 °F 48% 29.98 in 10.0 mi NNW 10.4 mph - N/A   Partly Cloudy
4:53 PM 80.1 °F 80.4 °F 57.0 °F 45% 29.98 in 10.0 mi NW 8.1 mph - N/A   Mostly Cloudy
5:53 PM 78.1 °F - 57.0 °F 48% 29.99 in 10.0 mi WNW 6.9 mph - N/A   Overcast
6:53 PM 77.0 °F - 57.0 °F 50% 30.01 in 10.0 mi NW 5.8 mph - N/A   Overcast
7:53 PM 77.0 °F - 55.9 °F 48% 30.04 in 10.0 mi NW 4.6 mph - N/A   Overcast
8:53 PM 75.9 °F - 57.9 °F 54% 30.05 in 10.0 mi Calm Calm - N/A   Mostly Cloudy
9:53 PM 75.9 °F - 57.9 °F 54% 30.08 in 10.0 mi Calm Calm - N/A   Overcast
10:53 PM 75.0 °F - 57.0 °F 53% 30.07 in 10.0 mi ESE 5.8 mph - N/A   Overcast
11:53 PM 73.9 °F - 57.0 °F 55% 30.06 in 10.0 mi ESE 5.8 mph - N/A   Overcast